When you browse on this site, cookies collect data to enhance your experience and personalize the content and advertising you see.
Visit our Privacy Policy to learn more. By continuing to use the site, you agree to this use of cookies and data.
  • în România
  • Lista ţărilor
  • Pe 7 zile
  • Temperatura apei
  • Hartă satelitară
  • Meteo pe hartă
  • Widget-uri
  • user-avatar
    Intrare

    Meteo pe oră la Saint-Malo

    Astăzi, 17 Iunie, Luni

    Timp Temperatura Precipitaţii Vânt Presiune Umiditate
    00:00 +10°C° 0 mm 4 m/s 765 mmHg 93%
    01:00 +10°C° 0 mm 4 m/s 765 mmHg 93%
    02:00 +10°C° 0 mm 3 m/s 764 mmHg 93%
    03:00 +9°C° 0 mm 3 m/s 764 mmHg 93%
    04:00 +10°C° 0 mm 3 m/s 764 mmHg 92%
    05:00 +11°C° 0 mm 3 m/s 764 mmHg 90%
    06:00 +12°C° 0 mm 3 m/s 764 mmHg 89%
    07:00 +14°C° 0 mm 2 m/s 764 mmHg 82%
    08:00 +16°C° 0 mm 2 m/s 764 mmHg 76%
    09:00 +18°C° 0 mm 1 m/s 764 mmHg 69%
    10:00 +19°C° 0 mm 2 m/s 764 mmHg 66%
    11:00 +20°C° 0 mm 2 m/s 764 mmHg 63%
    12:00 +21°C° 0 mm 2 m/s 763 mmHg 60%
    13:00 +21°C° 0 mm 2 m/s 763 mmHg 60%
    14:00 +23°C° 0 mm 2 m/s 763 mmHg 60%
    15:00 +22°C° 0 mm 3 m/s 762 mmHg 60%
    16:00 +21°C° 0 mm 3 m/s 762 mmHg 65%
    17:00 +21°C° 0 mm 3 m/s 762 mmHg 70%
    18:00 +20°C° 0 mm 3 m/s 762 mmHg 76%
    19:00 +18°C° 0 mm 3 m/s 762 mmHg 80%
    20:00 +15°C° 0 mm 4 m/s 762 mmHg 85%
    21:00 +14°C° 0 mm 4 m/s 762 mmHg 90%
    22:00 +14°C° 0 mm 4 m/s 762 mmHg 91%
    23:00 +14°C° 0 mm 4 m/s 762 mmHg 92%

    Mâine, 18 Iunie, Marţi

    Timp Temperatura Precipitaţii Vânt Presiune Umiditate
    00:00 +14°C° 0 mm 4 m/s 762 mmHg 94%
    01:00 +14°C° 0 mm 4 m/s 761 mmHg 93%
    02:00 +14°C° 0 mm 3 m/s 761 mmHg 92%
    03:00 +13°C° 0 mm 3 m/s 760 mmHg 91%
    04:00 +14°C° 0 mm 3 m/s 760 mmHg 90%
    05:00 +16°C° 0 mm 3 m/s 760 mmHg 88%
    06:00 +17°C° 0 mm 3 m/s 759 mmHg 87%
    07:00 +17°C° 0.7 mm 3 m/s 759 mmHg 89%
    08:00 +18°C° 0.7 mm 3 m/s 759 mmHg 91%
    09:00 +18°C° 0.7 mm 3 m/s 758 mmHg 93%
    10:00 +20°C° 0.1 mm 3 m/s 758 mmHg 88%
    11:00 +21°C° 0.1 mm 3 m/s 758 mmHg 83%
    12:00 +22°C° 0.1 mm 3 m/s 757 mmHg 79%
    13:00 +24°C° 0.1 mm 2 m/s 757 mmHg 74%
    14:00 +26°C° 0.1 mm 2 m/s 756 mmHg 69%
    15:00 +27°C° 0.1 mm 2 m/s 756 mmHg 64%
    16:00 +26°C° 0.7 mm 2 m/s 755 mmHg 69%
    17:00 +25°C° 0.7 mm 3 m/s 755 mmHg 75%
    18:00 +24°C° 0.7 mm 3 m/s 755 mmHg 80%
    19:00 +22°C° 0.7 mm 3 m/s 755 mmHg 84%
    20:00 +21°C° 0.7 mm 3 m/s 755 mmHg 88%
    21:00 +19°C° 0.7 mm 3 m/s 755 mmHg 92%
    22:00 +18°C° 0.4 mm 3 m/s 754 mmHg 93%
    23:00 +17°C° 0.4 mm 4 m/s 754 mmHg 93%

    Poimâine, 19 Iunie, Miercuri

    Timp Temperatura Precipitaţii Vânt Presiune Umiditate
    00:00 +15°C° 0.4 mm 4 m/s 754 mmHg 94%
    01:00 +15°C° 0 mm 5 m/s 754 mmHg 94%
    02:00 +15°C° 0 mm 5 m/s 754 mmHg 95%
    03:00 +15°C° 0 mm 6 m/s 754 mmHg 95%
    04:00 +15°C° 0 mm 6 m/s 754 mmHg 94%
    05:00 +15°C° 0 mm 7 m/s 754 mmHg 93%
    06:00 +15°C° 0 mm 8 m/s 755 mmHg 92%
    07:00 +15°C° 0 mm 8 m/s 755 mmHg 91%
    08:00 +15°C° 0 mm 8 m/s 755 mmHg 90%
    09:00 +15°C° 0 mm 8 m/s 756 mmHg 89%
    10:00 +17°C° 0 mm 7 m/s 756 mmHg 84%
    11:00 +18°C° 0 mm 7 m/s 757 mmHg 79%
    12:00 +20°C° 0 mm 6 m/s 757 mmHg 74%
    13:00 +19°C° 0.1 mm 6 m/s 757 mmHg 78%
    14:00 +17°C° 0.1 mm 6 m/s 758 mmHg 81%
    15:00 +16°C° 0.1 mm 5 m/s 758 mmHg 85%
    16:00 +15°C° 0 mm 5 m/s 758 mmHg 83%
    17:00 +15°C° 0 mm 5 m/s 758 mmHg 82%
    18:00 +15°C° 0 mm 5 m/s 758 mmHg 80%
    19:00 +15°C° 0 mm 4 m/s 759 mmHg 82%
    20:00 +14°C° 0 mm 4 m/s 759 mmHg 84%
    21:00 +13°C° 0 mm 4 m/s 760 mmHg 86%
    22:00 +13°C° 0 mm 4 m/s 760 mmHg 85%
    23:00 +13°C° 0 mm 4 m/s 760 mmHg 85%

    20 Iunie, Joi

    Timp Temperatura Precipitaţii Vânt Presiune Umiditate
    00:00 +13°C° 0 mm 4 m/s 760 mmHg 84%
    01:00 +12°C° 0 mm 4 m/s 760 mmHg 86%
    02:00 +12°C° 0 mm 4 m/s 760 mmHg 88%
    03:00 +11°C° 0 mm 3 m/s 760 mmHg 90%
    04:00 +12°C° 0 mm 3 m/s 760 mmHg 90%
    05:00 +12°C° 0 mm 3 m/s 760 mmHg 89%
    06:00 +12°C° 0 mm 3 m/s 760 mmHg 89%
    07:00 +13°C° 0 mm 3 m/s 760 mmHg 82%
    08:00 +16°C° 0 mm 3 m/s 761 mmHg 75%
    09:00 +17°C° 0 mm 3 m/s 761 mmHg 68%
    10:00 +18°C° 0 mm 3 m/s 761 mmHg 66%
    11:00 +18°C° 0 mm 3 m/s 761 mmHg 64%
    12:00 +19°C° 0 mm 3 m/s 761 mmHg 62%
    13:00 +19°C° 0 mm 3 m/s 761 mmHg 64%
    14:00 +19°C° 0 mm 3 m/s 761 mmHg 66%
    15:00 +19°C° 0 mm 3 m/s 761 mmHg 68%
    16:00 +18°C° 0 mm 3 m/s 761 mmHg 70%
    17:00 +17°C° 0 mm 3 m/s 761 mmHg 72%
    18:00 +16°C° 0 mm 3 m/s 761 mmHg 74%
    19:00 +14°C° 0 mm 3 m/s 762 mmHg 78%
    20:00 +13°C° 0 mm 2 m/s 762 mmHg 81%
    21:00 +12°C° 0 mm 2 m/s 762 mmHg 85%
    22:00 +12°C° 0 mm 2 m/s 762 mmHg 84%
    23:00 +12°C° 0 mm 2 m/s 762 mmHg 83%

    21 Iunie, Vineri

    Timp Temperatura Precipitaţii Vânt Presiune Umiditate
    00:00 +13°C° 0 mm 2 m/s 762 mmHg 82%
    01:00 +12°C° 0 mm 2 m/s 762 mmHg 84%
    02:00 +11°C° 0 mm 3 m/s 762 mmHg 86%
    03:00 +10°C° 0 mm 3 m/s 763 mmHg 88%
    04:00 +11°C° 0 mm 3 m/s 763 mmHg 88%
    05:00 +11°C° 0 mm 3 m/s 763 mmHg 87%
    06:00 +13°C° 0 mm 2 m/s 763 mmHg 87%
    07:00 +14°C° 0 mm 2 m/s 763 mmHg 80%
    08:00 +16°C° 0 mm 2 m/s 763 mmHg 73%
    09:00 +17°C° 0 mm 2 m/s 763 mmHg 66%
    10:00 +18°C° 0 mm 2 m/s 763 mmHg 64%
    11:00 +18°C° 0 mm 2 m/s 763 mmHg 62%
    12:00 +19°C° 0 mm 2 m/s 763 mmHg 61%
    13:00 +19°C° 0 mm 3 m/s 763 mmHg 63%
    14:00 +18°C° 0 mm 3 m/s 763 mmHg 65%
    15:00 +18°C° 0 mm 3 m/s 763 mmHg 67%
    16:00 +18°C° 0 mm 3 m/s 763 mmHg 68%
    17:00 +17°C° 0 mm 3 m/s 763 mmHg 70%
    18:00 +16°C° 0 mm 3 m/s 763 mmHg 72%
    19:00 +14°C° 0 mm 3 m/s 763 mmHg 75%
    20:00 +13°C° 0 mm 3 m/s 763 mmHg 78%
    21:00 +12°C° 0 mm 3 m/s 764 mmHg 81%
    22:00 +12°C° 0 mm 3 m/s 763 mmHg 83%
    23:00 +11°C° 0 mm 3 m/s 763 mmHg 86%

    22 Iunie, Sâmbătă

    Timp Temperatura Precipitaţii Vânt Presiune Umiditate
    00:00 +11°C° 0 mm 3 m/s 763 mmHg 89%
    01:00 +10°C° 0 mm 3 m/s 763 mmHg 90%
    02:00 +10°C° 0 mm 3 m/s 763 mmHg 91%
    03:00 +10°C° 0 mm 3 m/s 762 mmHg 92%
    04:00 +11°C° 0 mm 3 m/s 762 mmHg 89%
    05:00 +11°C° 0 mm 3 m/s 762 mmHg 87%
    06:00 +12°C° 0 mm 3 m/s 762 mmHg 85%
    07:00 +13°C° 0 mm 3 m/s 762 mmHg 79%
    08:00 +16°C° 0 mm 3 m/s 762 mmHg 73%
    09:00 +18°C° 0 mm 3 m/s 762 mmHg 68%
    10:00 +18°C° 0 mm 4 m/s 761 mmHg 67%
    11:00 +19°C° 0 mm 4 m/s 761 mmHg 66%
    12:00 +20°C° 0 mm 4 m/s 761 mmHg 65%
    13:00 +20°C° 0.1 mm 4 m/s 761 mmHg 66%
    14:00 +20°C° 0.1 mm 5 m/s 760 mmHg 68%
    15:00 +20°C° 0.1 mm 5 m/s 760 mmHg 70%
    16:00 +19°C° 0.2 mm 5 m/s 760 mmHg 74%
    17:00 +19°C° 0.2 mm 5 m/s 760 mmHg 79%
    18:00 +17°C° 0.2 mm 5 m/s 759 mmHg 83%
    19:00 +16°C° 0.1 mm 5 m/s 760 mmHg 87%
    20:00 +15°C° 0.1 mm 5 m/s 760 mmHg 90%
    21:00 +14°C° 0.1 mm 4 m/s 760 mmHg 94%
    22:00 +14°C° 0 mm 4 m/s 760 mmHg 94%
    23:00 +13°C° 0 mm 4 m/s 760 mmHg 94%
    Arată mai mult